This demonstration page uses our WeatherBlox Daily Observations layout. Learn more.

Left ArrowRight Arrow

Hourly Observations for October 21, 2016

Temp ( °F °C ) Dew Point ( °F °C ) Humidity (%) Winds ( mph kmh ) Pressure ( in mb ) Visibility ( mi km ) Precip ( " mm )
12:54 am 00:54 Clear 39 3.9 37 2.8 93 93 Calm 30.32 1027 10 16.0934 0 0
1:54 am 01:54 Clear 39 3.9 37 2.8 93 93 Calm 30.32 1027 10 16.0934 0 0
2:54 am 02:54 Clear 40 4.4 38 3.3 93 93 WSW 3 6 30.3 1026 10 16.0934 0 0
3:54 am 03:54 Clear 38 3.3 35 1.7 89 89 Calm 30.29 1026 10 16.0934 0 0
4:54 am 04:54 Clear 38 3.3 36 2.2 93 93 Calm 30.29 1026 10 16.0934 0 0
5:54 am 05:54 Clear 38 3.3 36 2.2 93 93 Calm 30.27 1025 9 14.48406 0 0
6:54 am 06:54 Clear 38 3.3 36 2.2 93 93 Calm 30.27 1025 9 14.48406 0 0
7:54 am 07:54 Sunny 38 3.3 36 2.2 93 93 SSE 5 7 30.26 1025 8 12.87472 0 0
8:54 am 08:54 Sunny 43 6.1 40 4.4 89 89 SSE 6 9 30.26 1025 9 14.48406 0 0
9:54 am 09:54 Sunny 48 8.9 44 6.7 86 86 S 6 9 30.26 1025 10 16.0934 0 0
10:54 am 10:54 Sunny 55 12.8 44 6.7 67 67 S 12 19 30.24 1024 10 16.0934 0 0
11:54 am 11:54 Sunny 59 15 43 6.1 56 56 SW 13 20 30.2 1023 10 16.0934 0 0
12:54 pm 12:54 Sunny 63 17.2 43 6.1 48 48 SSW 17 28 30.16 1021 10 16.0934 0 0
1:54 pm 13:54 Sunny 65 18.3 40 4.4 40 40 S 17 28 30.11 1020 10 16.0934 0 0
2:54 pm 14:54 Sunny 66 18.9 40 4.4 39 39 SSW 17 28 30.06 1018 10 16.0934 0 0
3:54 pm 15:54 Sunny 67 19.4 39 3.9 36 36 S 15 24 30.05 1018 10 16.0934 0 0
4:54 pm 16:54 Sunny 66 18.9 39 3.9 37 37 S 16 26 30.06 1018 10 16.0934 0 0
5:54 pm 17:54 Sunny 64 17.8 41 5 43 43 S 12 19 30.05 1018 10 16.0934 0 0
6:54 pm 18:54 Clear 55 12.8 42 5.6 62 62 S 8 13 30.06 1018 10 16.0934 0 0
7:54 pm 19:54 Clear 54 12.2 41 5 62 62 SSE 8 13 30.08 1019 10 16.0934 0 0
8:54 pm 20:54 Clear 51 10.6 41 5 69 69 S 8 13 30.07 1018 10 16.0934 0 0
9:54 pm 21:54 Clear 48 8.9 40 4.4 74 74 S 7 11 30.07 1018 10 16.0934 0 0
10:54 pm 22:54 Clear 47 8.3 40 4.4 77 77 S 8 13 30.06 1018 10 16.0934 0 0
11:54 pm 23:54 Clear 48 8.9 40 4.4 74 74 S 3 6 30.05 1018 10 16.0934 0 0

Powered by AerisWeather